Location: Riedlingen
(48.1569°N, 9.4757°E)
Time: 03:04:06
(UTC+01:00)

ISS - Visible Passes

Search period start: 20 November 2017 00:00
Search period end: 30 November 2017 00:00
Orbit: 402 x 407 km, 51.6° (Epoch: 20 November)

Date Brightness Start Highest point End Pass type
(mag) Time Alt. Az. Time Alt. Az. Time Alt. Az.
27 Nov -1.1 19:07:06 10° SSW 19:07:46 15° SSW 19:07:46 15° SSW visible
28 Nov -2.1 18:15:20 10° SSW 18:17:45 21° SE 18:17:45 21° SE visible
29 Nov -1.5 17:24:12 10° SSE 17:25:44 13° SE 17:27:16 10° ESE visible
29 Nov -2.1 18:58:26 10° SW 19:00:18 31° SW 19:00:18 31° SW visible
